Home > Time Zones > World Clock > Weather > China > Wuhan > Past weeks

Flag for China Weather past 2 weeks in Wuhan, Hubei, China

Now
37 °F

Haze.


Feels Like: 33 °F
Forecast: 33 / 38 °F
Wind: 6 mph from Northeast

Location: Wuhan Airport

Current Time: Jan 31, 2015 at 4:57:47 PM

Latest Report: Jan 31, 2015 at 4:00 PM


Visibility: 2 mi

Pressure: 30.54 "Hg

Humidity: 60%

Dew point: 25 °F

Location of WuhanLocation

Historic Weather in Wuhan — Graph

°F

Wuhan temperature yesterday

Maximum temperature yesterday: 36 °F (at 12:00 PM)
Minimum temperature yesterday: 27 °F (at 3:00 AM)
Average temperature yesterday: 32 °F

Past Weeks' High & Low Weather Summary

 TemperatureHumidityPressure
High61 °F (Jan 24, 1:00 PM)100% (Jan 21, 2:00 AM)30.63 "Hg (Jan 21, 2:00 AM)
Low27 °F (Jan 30, 3:00 AM)18% (Jan 21, 4:00 PM)29.98 "Hg (Jan 24, 5:00 AM)
Average43 °F68%30.30 "Hg
* Reported Jan 16 3:00 PM — Jan 31 3:00 PM, Wuhan, Weather by CustomWeather, © 2014

Note: Actual official high and low records may vary slightly from our data, if they occured in-between our weather recording intervals... More about our weather records

Advertising

Wuhan weather history for previous 24 hours

 ConditionsComfort  
Time TempWeatherWind HumidityBarometerVisibility
3:00 PM
Jan 31
37 °FHaze.3 mph60%30.54 "Hg2 mi
2:00 PM37 °FHaze.3 mph60%30.57 "Hg2 mi
1:00 PM37 °FHaze.3 mph65%30.60 "Hg2 mi
12:00 PM37 °FHaze.3 mph65%30.63 "Hg2 mi
11:00 AM37 °FHaze.3 mph70%30.63 "Hg1 mi
10:00 AM36 °FFog.6 mph75%30.63 "Hg1 mi
9:00 AM36 °FFog.3 mph75%30.63 "Hg1 mi
8:00 AM34 °FHaze.6 mph75%30.60 "Hg1 mi
7:00 AM34 °FPassing clouds.8 mph75%30.57 "Hg2 mi
6:00 AM34 °FFog.6 mph75%30.57 "Hg2 mi
5:00 AM34 °FFog.3 mph81%30.57 "Hg2 mi
4:00 AM34 °FFog.3 mph81%30.57 "Hg2 mi
3:00 AM34 °FFog.8 mph75%30.54 "Hg2 mi
2:00 AM34 °FFog.3 mph75%30.57 "Hg2 mi
1:00 AM34 °FFog.6 mph81%30.57 "Hg2 mi
12:00 AM34 °FFog.6 mph81%30.57 "Hg2 mi
11:00 PM
Jan 30
34 °FFog.6 mph81%30.57 "Hg2 mi
10:00 PM34 °FFog.6 mph81%30.60 "Hg2 mi
9:00 PM34 °FFog.6 mph81%30.57 "Hg2 mi
8:00 PM34 °FFog.6 mph81%30.57 "Hg2 mi
7:00 PM34 °FFog.3 mph81%30.54 "Hg2 mi
6:00 PM34 °FFog.3 mph81%30.51 "Hg3 mi
5:00 PM36 °FScattered clouds.8 mph75%30.48 "Hg4 mi
4:00 PM34 °FScattered clouds.3 mph81%30.51 "Hg4 mi
Weather by CustomWeather, © 2014

See weather overviewHow to use our weather pages